This demonstration page uses our WeatherBlox Daily Observations layout. Learn more.

Left ArrowRight Arrow

36.17497, -115.13722

Hourly Observations for July 7, 2021

Temp ( °F °C ) Dew Point ( °F °C ) Humidity (%) Winds ( mph kmh ) Pressure ( in mb ) Visibility ( mi km ) Precip ( " mm )
12:53 am 00:53 Clear 97 36.1 39 3.9 13 13 NW 8 13 29.68 1005 10 16 0.00 0.00
1:53 am 01:53 Clear 97 36.1 38 3.3 13 13 W 3 6 29.68 1005 10 16 0.00 0.00
2:53 am 02:53 Clear 94 34.4 40 4.4 15 15 SSE 6 9 29.68 1005 10 16 0.00 0.00
3:53 am 03:53 Clear 93 33.9 38 3.3 14 14 N 9 15 29.69 1005 10 16 0.00 0.00
4:53 am 04:53 Clear 94 34.4 37 2.8 14 14 N 10 17 29.70 1006 10 16 0.00 0.00
5:53 am 05:53 Sunny 91 32.8 38 3.3 15 15 NNW 5 7 29.72 1006 10 16 0.00 0.00
6:53 am 06:53 Sunny 92 33.3 40 4.4 16 16 NW 6 9 29.74 1007 10 16 0.00 0.00
7:53 am 07:53 Sunny 95 35 41 5 15 15 NW 3 6 29.75 1008 10 16 0.00 0.00
8:53 am 08:53 Sunny 100 37.8 42 5.6 14 14 ENE 5 7 29.75 1008 10 16 0.00 0.00
9:53 am 09:53 Sunny 103 39.4 41 5 12 12 Calm 29.75 1007 10 16 0.00 0.00
10:53 am 10:53 Sunny 104 40 42 5.6 12 12 VRB 5 7 29.74 1007 10 16 0.00 0.00
11:53 am 11:53 Sunny 108 42.2 40 4.4 10 10 ESE 8 13 29.72 1007 10 16 0.00 0.00
12:53 pm 12:53 Sunny 111 43.9 40 4.4 9 9 ESE 8 13 29.70 1006 10 16 0.00 0.00
1:53 pm 13:53 Sunny 113 45 38 3.3 8 8 SE 13 20 29.67 1005 10 16 0.00 0.00
2:53 pm 14:53 Sunny 114 45.6 38 3.3 8 8 S 7 11 29.65 1004 10 16 0.00 0.00
3:53 pm 15:53 Sunny 114 45.6 37 2.8 7 7 VRB 6 9 29.63 1004 10 16 0.00 0.00
4:53 pm 16:53 Sunny 114 45.6 37 2.8 7 7 S 8 13 29.61 1003 10 16 0.00 0.00
5:53 pm 17:53 Sunny 113 45 38 3.3 8 8 ESE 5 7 29.59 1002 10 16 0.00 0.00
6:53 pm 18:53 Sunny 113 45 40 4.4 8 8 ESE 10 17 29.59 1002 10 16 0.00 0.00
7:53 pm 19:53 Sunny 110 43.3 40 4.4 9 9 SE 12 19 29.60 1002 10 16 0.00 0.00
8:53 pm 20:53 Clear 108 42.2 42 5.6 11 11 S 7 11 29.60 1002 10 16 0.00 0.00
9:53 pm 21:53 Clear 106 41.1 41 5 11 11 W 10 17 29.62 1003 10 16 0.00 0.00
10:53 pm 22:53 Clear 106 41.1 41 5 11 11 W 12 19 29.62 1003 10 16 0.00 0.00
11:53 pm 23:53 Clear 101 38.3 43 6.1 14 14 E 7 11 29.63 1004 10 16 0.00 0.00

Powered by AerisWeather